Date String (YYYY-MM-DD hh:mm:ss) UTC,Instrument flags,Ambient pressure (hPa),Sample flow (lpm),Bypass flow (lpm),Sample temperature (°C),Ambient temperature (°C),ASC tube jacket temperature (°C),LED temperature (°C),Box temperature (°C),Sample RH (%),Span deviation,Mass concentration (μg/m³),Mass concentration (μg/m³),Mass concentration (μg/m³)
DateTimeUTC,F1_M11,P_M11,Q1_M11,Q2_M11,T1_M11,T2_M11,T3_M11,T4_M11,T5_M11,U1_M11,ZSPAN_M11,X2_M11,X0_M11,X1_M11
2022-12-29 17:00:00,,0817.5,4.97,0.00,22.2,22.9,00.0,30.9,24.1,12.8,0000.0,0001.85,0002.29,0001.71
2022-12-29 17:01:00,,0817.5,5.00,0.00,22.4,23.4,00.0,31.0,24.4,12.9,0000.0,0002.10,0002.57,0001.97
2022-12-29 17:02:00,,0817.6,5.02,0.00,22.4,22.9,00.0,31.0,24.3,12.7,0000.0,0002.34,0002.83,0002.21
2022-12-29 17:03:00,,0817.6,5.02,0.00,22.4,22.4,00.0,31.0,24.2,12.5,0000.0,0002.59,0003.13,0002.43
2022-12-29 17:04:00,,0817.6,4.98,0.00,22.4,22.0,00.0,31.1,24.2,12.0,0000.0,0002.83,0003.51,0002.62
2022-12-29 17:05:00,,0817.6,4.97,0.00,22.4,21.7,00.0,31.1,24.1,12.0,0000.0,0003.08,0004.04,0002.84
2022-12-29 17:06:00,,0817.5,5.02,0.00,22.4,21.5,00.0,31.1,24.1,12.1,0000.0,0003.24,0004.53,0003.07
2022-12-29 17:07:00,,0817.5,5.01,0.00,22.4,21.3,00.0,31.1,24.0,12.4,0000.0,0003.36,0004.79,0003.20
2022-12-29 17:08:00,,0817.5,5.00,0.00,22.3,21.2,00.0,31.1,24.0,12.5,0000.0,0003.46,0005.01,0003.30
2022-12-29 17:09:00,,0817.5,5.00,0.00,22.3,21.1,00.0,31.1,24.0,12.6,0000.0,0003.53,0005.14,0003.38
2022-12-29 17:10:00,,0817.6,4.98,0.00,22.3,21.0,00.0,31.1,23.9,12.4,0000.0,0003.61,0005.29,0003.44
2022-12-29 17:11:00,,0817.5,4.98,0.00,22.3,20.9,00.0,31.1,23.9,13.1,0000.0,0003.68,0005.43,0003.51
2022-12-29 17:12:00,,0817.6,5.02,0.00,22.3,20.9,00.0,31.1,23.9,12.9,0000.0,0003.74,0005.62,0003.56
2022-12-29 17:13:00,,0817.6,4.98,0.00,22.2,21.2,00.0,31.1,23.9,12.9,0000.0,0003.80,0005.71,0003.61
2022-12-29 17:14:00,,0817.6,5.02,0.00,22.3,22.6,00.0,31.1,24.2,13.1,0000.0,0003.87,0005.82,0003.68
2022-12-29 17:15:00,,0817.7,4.94,0.00,22.5,23.7,00.0,31.1,24.6,12.9,0000.0,0003.95,0005.93,0003.77
2022-12-29 17:16:00,,0817.6,5.01,0.00,22.6,23.2,00.0,31.2,24.6,12.7,0000.0,0004.02,0005.84,0003.84
2022-12-29 17:17:00,,0817.5,5.03,0.00,22.6,22.6,00.0,31.2,24.5,12.9,0000.0,0004.11,0005.82,0003.92
2022-12-29 17:18:00,,0817.5,5.01,0.00,22.6,22.2,00.0,31.2,24.4,12.7,0000.0,0004.16,0005.87,0003.97
2022-12-29 17:19:00,,0817.6,4.97,0.00,22.6,21.9,00.0,31.2,24.3,12.7,0000.0,0004.20,0006.04,0004.01
2022-12-29 17:20:00,,0817.6,4.97,0.00,22.6,21.6,00.0,31.3,24.3,12.7,0000.0,0004.25,0006.16,0004.05
2022-12-29 17:21:00,,0817.6,5.01,0.00,22.6,21.5,00.0,31.3,24.3,12.6,0000.0,0004.26,0006.18,0004.07
2022-12-29 17:22:00,,0817.6,5.02,0.00,22.6,21.5,00.0,31.3,24.3,12.5,0000.0,0004.26,0006.27,0004.05
2022-12-29 17:23:00,,0817.6,4.97,0.00,22.6,21.5,00.0,31.3,24.3,12.1,0000.0,0004.24,0006.21,0004.01
2022-12-29 17:24:00,,0817.6,4.97,0.00,22.6,21.5,00.0,31.3,24.3,11.7,0000.0,0004.20,0006.22,0003.94
2022-12-29 17:25:00,,0817.6,4.98,0.00,22.6,21.4,00.0,31.3,24.3,11.6,0000.0,0004.14,0006.19,0003.85
2022-12-29 17:26:00,,0817.6,5.04,0.00,22.6,21.4,00.0,31.3,24.3,11.8,0000.0,0004.07,0006.67,0003.77
2022-12-29 17:27:00,,0817.7,4.99,0.00,22.6,21.4,00.0,31.3,24.3,12.1,0000.0,0004.04,0006.99,0003.72
2022-12-29 17:28:00,,0817.7,4.97,0.00,22.6,21.4,00.0,31.3,24.2,12.2,0000.0,0003.97,0006.92,0003.65
2022-12-29 17:29:00,,0817.7,5.01,0.00,22.6,21.3,00.0,31.3,24.2,12.4,0000.0,0003.99,0007.77,0003.62
2022-12-29 17:30:00,,0817.7,5.04,0.00,22.5,21.2,00.0,31.3,24.1,12.5,0000.0,0004.00,0007.96,0003.59
2022-12-29 17:31:00,,0817.7,5.01,0.00,22.5,21.1,00.0,31.3,24.1,12.6,0000.0,0003.98,0007.99,0003.56
2022-12-29 17:32:00,,0817.7,4.99,0.00,22.5,21.1,00.0,31.3,24.1,12.9,0000.0,0003.99,0008.02,0003.55
2022-12-29 17:33:00,,0817.8,4.97,0.00,22.5,21.2,00.0,31.2,24.1,13.0,0000.0,0003.99,0007.99,0003.57
2022-12-29 17:34:00,,0817.7,5.00,0.00,22.5,21.3,00.0,31.2,24.1,12.6,0000.0,0004.00,0008.00,0003.58
2022-12-29 17:35:00,,0817.7,5.05,0.00,22.5,21.4,00.0,31.2,24.1,12.6,0000.0,0004.00,0008.00,0003.61
2022-12-29 17:36:00,,0817.7,5.02,0.00,22.5,21.4,00.0,31.2,24.1,12.7,0000.0,0004.01,0007.99,0003.64
2022-12-29 17:37:00,,0817.7,4.98,0.00,22.5,21.4,00.0,31.2,24.2,12.8,0000.0,0004.01,0007.70,0003.68
2022-12-29 17:38:00,,0817.8,4.97,0.00,22.5,21.4,00.0,31.2,24.2,12.7,0000.0,0003.99,0007.33,0003.69
2022-12-29 17:39:00,,0817.7,5.02,0.00,22.5,21.5,00.0,31.2,24.2,12.6,0000.0,0003.98,0007.26,0003.70
2022-12-29 17:40:00,,0817.7,5.03,0.00,22.5,21.5,00.0,31.2,24.2,12.7,0000.0,0003.93,0006.20,0003.69
2022-12-29 17:41:00,,0817.6,5.01,0.00,22.5,21.5,00.0,31.2,24.2,12.5,0000.0,0003.88,0005.49,0003.67
2022-12-29 17:42:00,,0817.6,4.98,0.00,22.5,21.5,00.0,31.2,24.2,12.7,0000.0,0003.82,0006.39,0003.66
2022-12-29 17:43:00,,0817.6,4.97,0.00,22.5,21.5,00.0,31.2,24.3,12.7,0000.0,0003.80,0007.81,0003.64
2022-12-29 17:44:00,,0817.6,5.02,0.00,22.5,21.5,00.0,31.2,24.3,12.5,0000.0,0003.75,0007.79,0003.60
2022-12-29 17:45:00,,0817.6,5.03,0.00,22.6,21.5,00.0,31.2,24.3,12.6,0000.0,0003.72,0007.74,0003.59
2022-12-29 17:46:00,,0817.6,4.98,0.00,22.6,21.5,00.0,31.3,24.3,12.4,0000.0,0003.72,0007.69,0003.59
2022-12-29 17:47:00,,0817.6,4.99,0.00,22.6,21.5,00.0,31.3,24.3,12.4,0000.0,0003.72,0007.79,0003.59
2022-12-29 17:48:00,,0817.6,4.98,0.00,22.6,21.5,00.0,31.3,24.3,12.4,0000.0,0003.75,0008.12,0003.60
2022-12-29 17:49:00,,0817.6,5.00,0.00,22.6,21.5,00.0,31.3,24.3,12.1,0000.0,0003.73,0008.12,0003.59
2022-12-29 17:50:00,,0817.6,5.01,0.00,22.6,21.5,00.0,31.3,24.3,12.3,0000.0,0003.73,0008.13,0003.58
2022-12-29 17:51:00,,0817.6,5.02,0.00,22.6,21.5,00.0,31.3,24.3,12.2,0000.0,0003.72,0008.12,0003.58
2022-12-29 17:52:00,,0817.6,4.98,0.00,22.6,21.5,00.0,31.3,24.3,12.1,0000.0,0003.72,0008.12,0003.57
2022-12-29 17:53:00,,0817.5,4.98,0.00,22.6,21.5,00.0,31.3,24.3,12.2,0000.0,0003.72,0007.26,0003.58
2022-12-29 17:54:00,,0817.5,4.97,0.00,22.6,21.5,00.0,31.3,24.3,12.0,0000.0,0003.69,0005.52,0003.56
2022-12-29 17:55:00,,0817.5,5.01,0.00,22.6,21.4,00.0,31.3,24.3,11.8,0000.0,0003.71,0005.55,0003.54
2022-12-29 17:56:00,,0817.5,5.01,0.00,22.6,21.4,00.0,31.3,24.3,11.5,0000.0,0003.68,0005.57,0003.50
2022-12-29 17:57:00,,0817.5,5.03,0.00,22.6,21.4,00.0,31.3,24.3,11.6,0000.0,0003.63,0005.88,0003.45
2022-12-29 17:58:00,,0817.4,5.00,0.00,22.6,21.5,00.0,31.3,24.3,12.1,0000.0,0003.61,0005.94,0003.43
2022-12-29 17:59:00,,0817.5,4.98,0.00,22.6,21.5,00.0,31.3,24.3,12.0,0000.0,0003.59,0005.42,0003.41
